TimeCST,TemperatureF,Dew PointF,Humidity,Sea Level PressureIn,VisibilityMPH,Wind Direction,Wind SpeedMPH,Gust SpeedMPH,PrecipitationIn,Events,Conditions,WindDirDegrees,DateUTC
12:15 AM,63.3,61.0,92,29.85,5.0,SE,3.5,-,N/A,,Clear,140,2012-12-07 06:15:00
12:35 AM,63.5,61.2,92,29.85,4.0,SE,4.6,-,N/A,,Clear,140,2012-12-07 06:35:00
12:55 AM,63.7,61.3,92,29.84,4.0,SE,3.5,-,N/A,,Clear,140,2012-12-07 06:55:00
1:15 AM,63.7,61.7,93,29.84,4.0,SE,4.6,-,N/A,,Clear,130,2012-12-07 07:15:00
1:35 AM,63.7,61.7,93,29.83,3.0,SE,4.6,-,N/A,,Clear,140,2012-12-07 07:35:00
1:55 AM,64.2,62.1,93,29.83,3.0,SSE,3.5,-,N/A,,Clear,150,2012-12-07 07:55:00
2:15 AM,64.0,61.9,93,29.83,1.2,SE,3.5,-,N/A,,Mist,140,2012-12-07 08:15:00
2:35 AM,62.6,60.8,94,29.82,0.2,SE,4.6,-,N/A,Rain,Light Rain,140,2012-12-07 08:35:00
2:55 AM,63.7,61.7,93,29.82,0.5,SE,3.5,-,N/A,Rain,Rain,130,2012-12-07 08:55:00
3:15 AM,63.7,61.7,93,29.82,0.2,SE,3.5,-,N/A,Rain,Light Rain,140,2012-12-07 09:15:00
3:35 AM,63.5,61.7,94,29.82,0.2,SE,3.5,-,N/A,Rain,Rain,140,2012-12-07 09:35:00
3:55 AM,63.0,61.0,93,29.82,0.2,SE,3.5,-,N/A,Rain,Light Rain,130,2012-12-07 09:55:00
4:15 AM,62.8,61.0,94,29.81,0.2,Calm,Calm,-,N/A,Rain,Rain,0,2012-12-07 10:15:00
4:35 AM,62.1,60.3,94,29.81,0.5,East,3.5,-,N/A,Rain,Rain,100,2012-12-07 10:35:00
4:55 AM,62.6,60.8,94,29.81,1.2,East,3.5,-,N/A,Rain,Light Rain,100,2012-12-07 10:55:00
5:15 AM,61.7,59.9,94,29.81,0.5,Calm,Calm,-,N/A,Rain,Heavy Rain,0,2012-12-07 11:15:00
5:35 AM,61.9,60.1,94,29.81,0.2,East,3.5,-,N/A,Rain,Rain,100,2012-12-07 11:35:00
5:55 AM,61.7,59.9,94,29.81,0.5,Calm,Calm,-,N/A,Rain,Light Rain,0,2012-12-07 11:55:00
6:15 AM,62.6,60.8,94,29.82,0.8,East,3.5,-,N/A,,Overcast,90,2012-12-07 12:15:00
6:35 AM,63.0,61.2,94,29.82,0.8,East,3.5,-,N/A,,Overcast,90,2012-12-07 12:35:00
6:55 AM,63.0,61.2,94,29.83,0.2,Calm,Calm,-,N/A,Rain,Light Rain,0,2012-12-07 12:55:00
7:15 AM,63.7,61.9,94,29.83,0.2,East,3.5,-,N/A,Rain,Light Rain,100,2012-12-07 13:15:00
7:35 AM,64.9,63.1,94,29.84,0.2,ESE,3.5,-,N/A,Rain,Light Rain,120,2012-12-07 13:35:00
7:55 AM,65.8,64.0,94,29.84,0.2,SE,5.8,-,N/A,Rain,Light Rain,130,2012-12-07 13:55:00
8:15 AM,66.6,64.8,94,29.85,0.2,SE,4.6,-,N/A,Rain,Light Rain,140,2012-12-07 14:15:00
8:35 AM,68.0,66.2,94,29.86,1.5,SE,4.6,-,N/A,Rain,Light Rain,140,2012-12-07 14:35:00
8:55 AM,69.3,67.5,94,29.86,4.0,SSE,5.8,-,N/A,,Mostly Cloudy,150,2012-12-07 14:55:00
9:15 AM,69.8,67.6,93,29.87,4.0,SSE,6.9,-,N/A,,Mostly Cloudy,160,2012-12-07 15:15:00
9:35 AM,70.7,68.9,94,29.87,5.0,SSE,6.9,-,N/A,,Mostly Cloudy,150,2012-12-07 15:35:00
9:55 AM,72.5,70.2,92,29.87,5.0,SSE,10.4,-,N/A,,Scattered Clouds,160,2012-12-07 15:55:00
10:15 AM,74.5,70.9,88,29.87,5.0,SSE,11.5,-,N/A,,Scattered Clouds,160,2012-12-07 16:15:00
10:35 AM,76.6,68.7,76,29.87,7.0,SSE,9.2,-,N/A,,Scattered Clouds,150,2012-12-07 16:35:00
10:55 AM,77.2,68.4,74,29.86,5.0,SSE,10.4,-,N/A,,Haze,150,2012-12-07 16:55:00
11:15 AM,79.7,66.9,65,29.85,7.0,SSE,17.3,21.9,N/A,,Scattered Clouds,160,2012-12-07 17:15:00
11:35 AM,80.6,66.7,63,29.85,7.0,SE,13.8,-,N/A,,Mostly Cloudy,140,2012-12-07 17:35:00
11:55 AM,80.2,65.8,61,29.83,10.0,SSE,16.1,21.9,N/A,,Mostly Cloudy,150,2012-12-07 17:55:00
12:15 PM,82.4,64.8,55,29.82,7.0,SE,17.3,-,N/A,,Scattered Clouds,140,2012-12-07 18:15:00
12:35 PM,82.6,64.6,54,29.81,7.0,SE,13.8,19.6,N/A,,Scattered Clouds,140,2012-12-07 18:35:00
12:55 PM,83.3,63.9,52,29.80,7.0,SSE,13.8,18.4,N/A,,Mostly Cloudy,160,2012-12-07 18:55:00
1:15 PM,85.1,63.3,48,29.78,7.0,SSE,15.0,20.7,N/A,,Scattered Clouds,160,2012-12-07 19:15:00
1:35 PM,85.3,63.7,48,29.78,5.0,South,15.0,-,N/A,,Haze,170,2012-12-07 19:35:00
1:55 PM,85.6,63.0,46,29.77,7.0,South,12.7,16.1,N/A,,Scattered Clouds,170,2012-12-07 19:55:00
2:15 PM,84.4,63.0,48,29.76,7.0,SSE,15.0,-,N/A,,Scattered Clouds,150,2012-12-07 20:15:00
2:35 PM,85.6,62.8,46,29.75,7.0,SSE,12.7,18.4,N/A,,Scattered Clouds,160,2012-12-07 20:35:00
2:55 PM,85.3,62.4,46,29.75,7.0,South,13.8,17.3,N/A,,Clear,170,2012-12-07 20:55:00
3:15 PM,85.6,61.9,45,29.75,10.0,South,11.5,18.4,N/A,,Clear,170,2012-12-07 21:15:00
3:35 PM,85.5,62.8,46,29.74,7.0,SSE,12.7,20.7,N/A,,Scattered Clouds,150,2012-12-07 21:35:00
3:55 PM,85.1,63.0,47,29.74,7.0,SE,12.7,19.6,N/A,,Scattered Clouds,140,2012-12-07 21:55:00
4:15 PM,84.4,63.7,50,29.74,7.0,SSE,17.3,23.0,N/A,,Scattered Clouds,150,2012-12-07 22:15:00
4:35 PM,83.1,63.9,52,29.74,7.0,SE,16.1,20.7,N/A,,Clear,140,2012-12-07 22:35:00
4:55 PM,82.4,63.9,53,29.75,7.0,SSE,13.8,19.6,N/A,,Clear,150,2012-12-07 22:55:00
5:15 PM,81.0,63.9,56,29.75,7.0,SSE,11.5,-,N/A,,Clear,150,2012-12-07 23:15:00
5:35 PM,79.9,64.2,59,29.76,7.0,SSE,13.8,-,N/A,,Clear,150,2012-12-07 23:35:00
5:55 PM,78.8,64.8,62,29.76,10.0,SSE,12.7,-,N/A,,Clear,150,2012-12-07 23:55:00
6:15 PM,78.1,65.3,65,29.76,10.0,SSE,11.5,17.3,N/A,,Clear,150,2012-12-08 00:15:00
6:35 PM,77.5,65.3,66,29.77,7.0,SE,9.2,17.3,N/A,,Clear,140,2012-12-08 00:35:00
6:55 PM,77.0,65.7,68,29.78,7.0,SSE,9.2,-,N/A,,Clear,150,2012-12-08 00:55:00
7:15 PM,76.3,66.2,71,29.79,7.0,SSE,9.2,-,N/A,,Clear,150,2012-12-08 01:15:00
7:35 PM,75.6,66.6,74,29.79,7.0,SSE,9.2,-,N/A,,Clear,150,2012-12-08 01:35:00
7:55 PM,75.4,67.1,75,29.80,7.0,SSE,9.2,-,N/A,,Clear,150,2012-12-08 01:55:00
8:15 PM,75.0,67.1,76,29.81,7.0,SSE,8.1,-,N/A,,Scattered Clouds,150,2012-12-08 02:15:00
8:35 PM,74.5,67.3,78,29.82,10.0,SE,6.9,-,N/A,,Scattered Clouds,140,2012-12-08 02:35:00
9:15 PM,72.9,67.3,83,29.82,7.0,SE,6.9,-,N/A,,Clear,140,2012-12-08 03:15:00
9:35 PM,71.8,67.1,85,29.82,7.0,SE,5.8,-,N/A,,Clear,130,2012-12-08 03:35:00
9:55 PM,70.7,66.4,86,29.83,7.0,SE,5.8,-,N/A,,Clear,130,2012-12-08 03:55:00
10:15 PM,70.3,66.6,88,29.83,7.0,ESE,4.6,-,N/A,,Clear,120,2012-12-08 04:15:00
10:35 PM,71.2,67.1,87,29.83,7.0,SE,4.6,-,N/A,,Clear,130,2012-12-08 04:35:00
10:55 PM,71.1,67.1,87,29.82,7.0,ESE,4.6,-,N/A,,Scattered Clouds,120,2012-12-08 04:55:00
11:15 PM,71.2,67.3,87,29.82,7.0,SE,6.9,-,N/A,,Scattered Clouds,130,2012-12-08 05:15:00
11:35 PM,70.7,66.7,87,29.82,5.0,ESE,5.8,-,N/A,,Scattered Clouds,110,2012-12-08 05:35:00
11:55 PM,70.2,66.6,88,29.81,5.0,ESE,5.8,-,N/A,,Clear,110,2012-12-08 05:55:00